Starlink 11239

operational
NORAD ID: 60924 Int'l Des: 2024-155 Owner: SPXS Country: US Constellation: starlink
LEOCIRCULAR

Über Starlink 11239

Beschreibung wird geladen...

Live-Position

3D-Globus wird geladen...

Nächste Überflüge

Höhenverlauf

Altitude vs Time

uPlot chart will show altitude changes over time

Zweizeiliger Elementsatz

1 60924U 24155A 25258.82918692 .00001256 00000-0 15216-4 0 9998
2 60924 53.1592 123.6179 0000877 91.9407 268.1711 15.69724219 60939
Epoch: 15. Sept. 2025 • Age: 37 hours

Aktueller Status

Höhe 361.1 km
Geschwindigkeit 7.69 km/s
Subsatellitenpunkt -2.97°S, 11.03°W
Startdatum 31. Aug. 2024
Alter 1 years
Typ internet

Technische Details

Klassifizierung Payload
Masse 960.00 kg
Trockenmasse 910.00 kg
Gesamtmasse 960.00 kg
Länge 0.30 m
Durchmesser 4.10 m
Spannweite 29.00 m
Form Box + pan
Hersteller SPXS
Bus-Typ Starlink V2MD
Phasenstatus In Orbit
Besitzer/Staat SPXS/US

Große Konstellationen

Loading constellations...